EW4931 Weather Reports


time (UTC)temp
C
wind
direction
speed
KPH
gust
KPH
rain 1hr
cm
rain 24hr
cm
rain mn
cm
humidity
%
barometer
mb
20260902123146 20 279 8.0 17.7 0.00 0.00 0.00 70 1007.7
20260902122645 20 353 6.4 17.7 0.00 0.00 0.00 70 1007.7
20260902122145 19 269 6.4 14.5 0.00 0.00 0.00 70 1007.7
20260902121908 19 264 6.4 16.1 0.00 0.00 0.00 71 1007.8
20260902121145 19 179 6.4 19.3 0.00 0.00 0.00 71 1007.8
20260902120645 19 275 11.3 19.3 0.00 0.00 0.00 69 1007.9
20260902120145 20 266 8.0 14.5 0.00 0.00 0.00 69 1007.9
20260902115645 20 283 3.2 11.3 0.00 0.00 0.00 70 1008.0
20260902115144 19 255 6.4 16.1 0.00 0.00 0.00 70 1007.9
20260902114646 19 250 6.4 16.1 0.00 0.00 0.00 70 1008.0
20260902114143 19 261 8.0 20.9 0.00 0.00 0.00 69 1008.1
20260902113643 19 299 8.0 20.9 0.00 0.00 0.00 70 1008.0
20260902113143 19 275 6.4 19.3 0.00 0.00 0.00 69 1008.1
20260902112643 19 213 8.0 19.3 0.00 0.00 0.00 70 1008.1
20260902112143 19 327 4.8 22.5 0.00 0.00 0.00 71 1008.1
20260902111642 19 240 3.2 22.5 0.00 0.00 0.00 71 1008.1
20260902111144 19 295 11.3 17.7 0.00 0.00 0.00 70 1008.2
20260902110906 19 275 8.0 24.1 0.00 0.00 0.00 70 1008.2
20260902110143 19 268 9.7 24.1 0.00 0.00 0.00 70 1008.2
20260902105641 19 285 8.0 16.1 0.00 0.00 0.00 70 1008.2
20260902105142 19 296 11.3 20.9 0.00 0.00 0.00 70 1008.2
20260902104643 18 258 8.0 20.9 0.00 0.00 0.00 70 1008.2
20260902104142 18 288 8.0 22.5 0.00 0.00 0.00 70 1008.3
20260902103631 18 305 12.9 22.5 0.00 0.00 0.00 70 1008.3
20260902103131 19 268 9.7 20.9 0.00 0.00 0.00 69 1008.2
20260902102631 20 268 6.4 16.1 0.00 0.00 0.00 69 1008.3
20260902102131 19 233 6.4 20.9 0.00 0.00 0.00 70 1008.4
20260902101853 19 281 9.7 20.9 0.00 0.00 0.00 71 1008.4
20260902101131 18 269 8.0 17.7 0.00 0.00 0.00 72 1008.4
20260902100631 18 285 6.4 16.1 0.00 0.00 0.00 72 1008.3
20260902100131 18 269 6.4 20.9 0.00 0.00 0.00 72 1008.4
20260902095631 18 268 9.7 20.9 0.00 0.00 0.00 71 1008.3
20260902095132 18 302 6.4 16.1 0.00 0.00 0.00 73 1008.4
20260902094632 18 309 4.8 16.1 0.00 0.00 0.00 72 1008.4
20260902094131 18 310 6.4 17.7 0.00 0.00 0.00 73 1008.5
20260902093858 18 281 9.7 17.7 0.00 0.00 0.00 72 1008.5
20260902093131 18 234 3.2 14.5 0.00 0.00 0.00 73 1008.5
20260902092631 18 221 4.8 16.1 0.00 0.00 0.00 73 1008.4
20260902092131 18 258 6.4 16.1 0.00 0.00 0.00 73 1008.4
20260902091604 18 262 3.2 16.1 0.00 0.00 0.00 75 1008.5
20260902091105 17 234 6.4 16.1 0.00 0.00 0.00 75 1008.5
20260902090605 18 268 9.7 16.1 0.00 0.00 0.00 73 1008.5
20260902090325 18 281 6.4 16.1 0.00 0.00 0.00 76 1008.4
20260902085604 18 221 4.8 9.7 0.00 0.00 0.00 75 1008.5
20260902085104 18 220 4.8 14.5 0.00 0.00 0.00 77 1008.4
20260902084605 17 288 6.4 14.5 0.00 0.00 0.00 77 1008.4
20260902084106 17 290 4.8 9.7 0.00 0.00 0.00 78 1008.4
20260902083604 17 234 3.2 16.1 0.00 0.00 0.00 79 1008.4
20260902083335 17 298 8.0 16.1 0.00 0.00 0.00 79 1008.4
20260902082605 17 266 6.4 11.3 0.00 0.00 0.00 79 1008.4
20260902082105 17 224 4.8 14.5 0.00 0.00 0.00 79 1008.4
20260902081604 17 269 8.0 14.5 0.00 0.00 0.00 80 1008.4
20260902081105 16 251 3.2 11.3 0.00 0.00 0.00 80 1008.4
20260902080605 16 203 3.2 9.7 0.00 0.00 0.00 81 1008.4
20260902080327 16 312 3.2 16.1 0.00 0.00 0.00 83 1008.4
20260902075604 16 295 9.7 16.1 0.00 0.00 0.00 83 1008.4
20260902075105 16 274 6.4 11.3 0.00 0.00 0.00 84 1008.4
20260902074605 16 278 6.4 14.5 0.00 0.00 0.00 84 1008.4
20260902074105 15 257 4.8 16.1 0.00 0.00 0.00 85 1008.4
20260902073605 15 251 9.7 16.1 0.00 0.00 0.00 84 1008.4
20260902073105 15 289 6.4 9.7 0.00 0.00 0.00 85 1008.4
20260902072605 15 278 8.0 9.7 0.00 0.00 0.00 85 1008.5
20260902072105 15 293 6.4 9.7 0.00 0.00 0.00 86 1008.5
20260902071605 15 293 3.2 9.7 0.00 0.00 0.00 87 1008.5
20260902071105 15 281 6.4 9.7 0.00 0.00 0.00 87 1008.5
20260902070605 15 302 4.8 14.5 0.00 0.00 0.00 88 1008.5
20260902070105 14 279 11.3 14.5 0.00 0.00 0.00 88 1008.4
20260902065605 14 271 6.4 14.5 0.00 0.00 0.00 88 1008.4
20260902065105 14 278 9.7 14.5 0.00 0.00 0.00 88 1008.4
20260902064605 -17 271 8.0 11.3 0.00 0.00 0.00 1008.4
20260902064104 -17 0.0 0.0 0.00 0.00 0.00 1008.4
20260902063605 -17 0.0 0.0 0.00 0.00 0.00 1008.3
20260902063328 14 255 6.4 9.7 0.00 0.00 0.00 91 1008.3
20260902062605 14 255 6.4 9.7 0.00 0.00 0.00 91 1008.4
20260902062104 14 266 6.4 9.7 0.00 0.00 0.00 91 1008.4
20260902061605 13 283 6.4 9.7 0.00 0.00 0.00 91 1008.3
20260902061104 13 288 6.4 9.7 0.00 0.00 0.00 92 1008.3
20260902060604 13 268 6.4 9.7 0.00 0.00 0.00 92 1008.3
20260902060106 13 295 6.4 9.7 0.00 0.00 0.00 93 1008.4
20260902055825 13 265 3.2 11.3 0.00 0.00 0.00 93 1008.2
20260902055101 13 288 6.4 11.3 0.00 0.00 0.00 93 1008.1
20260902054549 13 261 6.4 8.0 0.00 0.00 0.00 94 1008.2
20260902054044 13 282 3.2 8.0 0.00 0.00 0.00 94 1008.2
20260902053759 13 272 3.2 8.0 0.00 0.00 0.00 94 1008.2
20260902053031 13 275 4.8 8.0 0.00 0.00 0.00 94 1008.2
20260902052532 13 278 0.0 6.4 0.00 0.00 0.00 94 1008.2
20260902052031 13 278 0.0 6.4 0.00 0.00 0.00 94 1008.3
20260902051531 13 261 0.0 8.0 0.00 0.00 0.00 94 1008.3
20260902051032 13 259 1.6 8.0 0.00 0.00 0.00 94 1008.2
20260902050530 13 276 4.8 8.0 0.00 0.00 0.00 94 1008.2
20260902050252 13 254 0.0 9.7 0.00 0.00 0.00 94 1008.1
20260902045530 12 268 4.8 9.7 0.00 0.00 0.00 95 1008.1
20260902045030 12 300 4.8 11.3 0.00 0.00 0.00 95 1008.1
20260902044525 12 316 6.4 11.3 0.00 0.00 0.00 95 1008.2
20260902044026 12 281 3.2 8.0 0.00 0.00 0.00 95 1008.2
20260902043744 12 272 1.6 14.5 0.00 0.00 0.00 95 1008.1
20260902043239 12 283 4.8 14.5 0.00 0.00 0.00 95 1008.1
20260902042516 12 272 1.6 8.0 0.00 0.00 0.00 95 1008.2
20260902042016 12 282 3.2 8.0 0.00 0.00 0.00 95 1008.2
20260902041517 12 285 3.2 8.0 0.00 0.00 0.00 95 1008.1
20260902041015 12 254 0.0 6.4 0.00 0.00 0.00 95 1008.2
20260902040515 12 282 0.0 4.8 0.00 0.00 0.00 95 1008.1
20260902040016 12 282 1.6 9.7 0.00 0.00 0.00 95 1008.1
20260902035514 12 286 1.6 11.3 0.00 0.00 0.00 96 1008.1
20260902035014 12 272 4.8 11.3 0.00 0.00 0.00 96 1008.2
20260902034515 12 279 1.6 8.0 0.00 0.00 0.00 96 1008.2
20260902034014 12 288 4.8 8.0 0.00 0.00 0.00 96 1008.2
20260902033514 12 295 3.2 9.7 0.00 0.00 0.00 96 1008.2
20260902033014 12 266 1.6 9.7 0.00 0.00 0.00 96 1008.3
20260902032514 12 278 1.6 4.8 0.00 0.00 0.00 95 1008.3
20260902032233 12 279 0.0 4.8 0.00 0.00 0.00 96 1008.2
20260902031513 12 298 1.6 4.8 0.00 0.00 0.00 95 1008.3
20260902031014 12 278 0.0 4.8 0.00 0.00 0.00 95 1008.3
20260902030513 12 310 1.6 4.8 0.00 0.00 0.00 95 1008.3
20260902030013 12 290 1.6 4.8 0.00 0.00 0.00 95 1008.3
20260902025514 12 73 0.0 3.2 0.00 0.00 0.00 95 1008.3
20260902025012 12 73 0.0 0.0 0.00 0.00 0.00 96 1008.3
20260902024513 11 73 0.0 1.6 0.00 0.00 0.00 95 1008.3
20260902024013 11 73 0.0 3.2 0.00 0.00 0.00 95 1008.4
20260902023513 11 73 0.0 3.2 0.00 0.00 0.00 95 1008.4
20260902023013 11 73 0.0 0.0 0.00 0.00 0.00 95 1008.3
20260902022513 11 73 0.0 0.0 0.00 0.00 0.00 95 1008.3
20260902022008 11 73 0.0 0.0 0.00 0.00 0.00 95 1008.2
20260902021503 11 73 0.0 0.0 0.00 0.00 0.00 95 1008.3
20260902021005 11 73 0.0 0.0 0.00 0.00 0.00 95 1008.2
20260902020505 11 73 0.0 0.0 0.00 0.00 0.00 95 1008.3
20260902020007 11 73 0.0 0.0 0.00 0.00 0.00 95 1008.2
20260902015505 11 73 0.0 0.0 0.00 0.00 0.00 95 1008.2
20260902015006 11 73 0.0 0.0 0.00 0.00 0.00 95 1008.2
20260902014506 11 73 0.0 0.0 0.00 0.00 0.00 95 1008.2
20260902014005 11 73 0.0 0.0 0.00 0.00 0.00 95 1008.1
20260902013506 11 73 0.0 0.0 0.00 0.00 0.00 95 1008.2
20260902013005 11 73 0.0 0.0 0.00 0.00 0.00 95 1008.2
20260902012505 11 73 0.0 0.0 0.00 0.00 0.00 95 1008.2
20260902012006 11 73 0.0 0.0 0.00 0.00 0.00 95 1008.2
20260902011504 11 73 0.0 0.0 0.00 0.00 0.00 95 1008.2
20260902011227 11 73 0.0 0.0 0.00 0.00 0.00 94 1008.2
20260902010505 11 73 0.0 0.0 0.00 0.00 0.00 95 1008.3
20260902010005 12 73 0.0 0.0 0.00 0.00 0.00 95 1008.3
20260902005504 12 73 0.0 0.0 0.00 0.00 0.00 95 1008.1
20260902005006 12 73 0.0 0.0 0.00 0.00 0.00 95 1008.2
20260902004505 12 73 0.0 0.0 0.00 0.00 0.00 94 1008.2
20260902004004 11 73 0.0 0.0 0.00 0.00 0.00 94 1008.2
20260902003723 12 73 0.0 0.0 0.00 0.00 0.00 94 1008.2
20260902003006 12 73 0.0 0.0 0.00 0.00 0.00 95 1008.2
20260902002505 12 73 0.0 0.0 0.00 0.00 0.00 95 1008.2
20260902002452 12 73 0.0 0.0 0.00 0.00 0.00 94 1008.2
20260902001506 12 73 0.0 0.0 0.00 0.00 0.00 94 1008.2
20260902001231 12 73 0.0 0.0 0.00 0.00 0.00 94 1008.0
20260902000505 12 73 0.0 0.0 0.00 0.00 0.00 94 1008.1
20260902000005 12 73 0.0 0.0 0.00 0.00 0.00 94 1008.2
20260901235728 12 73 0.0 0.0 0.00 0.00 0.00 94 1008.1
20260901235005 12 73 0.0 0.0 0.00 0.00 0.00 94 1008.2
20260901234506 12 73 0.0 0.0 0.00 0.00 0.00 94 1008.2
20260901234005 12 73 0.0 0.0 0.00 0.00 0.00 94 1008.2
20260901233505 12 73 0.0 0.0 0.00 0.00 0.00 94 1008.2
20260901233005 12 73 0.0 0.0 0.00 0.00 0.00 94 1008.2
20260901232725 12 73 0.0 0.0 0.00 0.00 0.00 94 1008.3
20260901232005 12 73 0.0 0.0 0.00 0.00 0.00 94 1008.3
20260901231724 12 73 0.0 0.0 0.00 0.00 0.00 94 1008.3
20260901231005 12 73 0.0 0.0 0.00 0.00 0.00 94 1008.3
20260901230730 12 73 0.0 0.0 0.00 0.00 0.00 94 1008.4
20260901230006 12 73 0.0 0.0 0.00 0.00 0.00 94 1008.3
20260901225736 13 73 0.0 0.0 0.00 0.00 0.00 94 1008.4
20260901225005 13 73 0.0 0.0 0.00 0.00 0.00 94 1008.3
20260901224956 13 73 0.0 0.0 0.00 0.00 0.00 94 1008.3
20260901224005 13 73 0.0 0.0 0.00 0.00 0.00 94 1008.3
20260901223505 13 73 0.0 0.0 0.00 0.00 0.00 94 1008.4
20260901223006 13 73 0.0 0.0 0.00 0.00 0.00 94 1008.3
20260901222505 13 73 0.0 0.0 0.00 0.00 0.00 94 1008.3
20260901222005 13 73 0.0 0.0 0.00 0.00 0.00 94 1008.3
20260901221505 13 73 0.0 0.0 0.00 0.00 0.00 94 1008.4
20260901221227 13 73 0.0 0.0 0.00 0.00 0.00 94 1008.3
20260901220505 13 73 0.0 0.0 0.00 0.00 0.00 94 1008.4
20260901220006 13 73 0.0 0.0 0.00 0.00 0.00 93 1008.5
20260901215505 13 73 0.0 0.0 0.00 0.00 0.00 93 1008.4
20260901215005 13 73 0.0 0.0 0.00 0.00 0.00 93 1008.3
20260901214504 13 73 0.0 0.0 0.00 0.00 0.00 93 1008.4
20260901214005 13 73 0.0 0.0 0.00 0.00 0.00 93 1008.4
20260901213718 13 73 0.0 0.0 0.00 0.00 0.00 94 1008.3
20260901212957 13 73 0.0 0.0 0.00 0.00 0.00 93 1008.3
20260901212452 13 73 0.0 0.0 0.00 0.00 0.00 93 1008.4
20260901212221 14 73 0.0 0.0 0.00 0.00 0.00 93 1008.3
20260901211446 14 73 0.0 0.0 0.00 0.00 0.00 93 1008.3
20260901210945 14 73 0.0 0.0 0.00 0.00 0.00 93 1008.4
20260901210446 14 73 0.0 0.0 0.00 0.00 0.00 93 1008.3
20260901205942 14 73 0.0 0.0 0.00 0.00 0.00 92 1008.3
20260901205441 14 73 0.0 0.0 0.00 0.00 0.00 92 1008.3
20260901205432 14 73 0.0 0.0 0.00 0.00 0.00 92 1008.4
20260901204438 14 73 0.0 0.0 0.00 0.00 0.00 92 1008.4
20260901203939 14 73 0.0 0.0 0.00 0.00 0.00 92 1008.4
20260901203923 15 73 0.0 0.0 0.00 0.00 0.00 92 1008.4
20260901202937 15 73 0.0 0.0 0.00 0.00 0.00 92 1008.5
20260901202659 15 73 0.0 0.0 0.00 0.00 0.00 92 1008.4
20260901201935 15 73 0.0 0.0 0.00 0.00 0.00 92 1008.4
20260901201433 15 73 0.0 0.0 0.00 0.00 0.00 92 1008.3
20260901200932 15 73 0.0 0.0 0.00 0.00 0.00 92 1008.4
20260901200652 15 73 0.0 0.0 0.00 0.00 0.00 92 1008.4
20260901195930 15 73 0.0 0.0 0.00 0.00 0.00 92 1008.4
20260901195431 15 73 0.0 0.0 0.00 0.00 0.00 91 1008.4
20260901194928 16 73 0.0 0.0 0.00 0.00 0.00 92 1008.3
20260901194429 16 73 0.0 0.0 0.00 0.00 0.00 91 1008.4
20260901193926 16 73 0.0 0.0 0.00 0.00 0.00 92 1008.4
20260901193426 16 73 0.0 0.0 0.00 0.00 0.00 91 1008.3
20260901192924 16 73 0.0 0.0 0.00 0.00 0.00 91 1008.4
20260901192422 16 73 0.0 3.2 0.00 0.00 0.00 91 1008.3
20260901191922 16 73 0.0 3.2 0.00 0.00 0.00 91 1008.3
20260901191423 16 73 1.6 4.8 0.00 0.00 0.00 91 1008.4
20260901190912 16 73 3.2 4.8 0.00 0.00 0.00 90 1008.4
20260901190404 16 73 1.6 4.8 0.00 0.00 0.00 90 1008.3
20260901190127 16 73 3.2 4.8 0.00 0.00 0.00 90 1008.3
20260901185405 16 73 3.2 4.8 0.00 0.00 0.00 89 1008.3
20260901185128 16 73 3.2 4.8 0.00 0.00 0.00 89 1008.2
20260901184406 16 73 3.2 4.8 0.00 0.00 0.00 89 1008.1
20260901183905 17 73 0.0 3.2 0.00 0.00 0.00 88 1008.2
20260901183403 17 73 3.2 6.4 0.00 0.00 0.00 88 1008.2
20260901182905 17 73 3.2 6.4 0.00 0.00 0.00 88 1008.2
20260901182404 17 73 3.2 6.4 0.00 0.00 0.00 88 1008.2
20260901181905 17 73 4.8 6.4 0.00 0.00 0.00 87 1008.2
20260901181404 17 73 3.2 4.8 0.00 0.00 0.00 87 1008.1
20260901180904 17 73 3.2 3.2 0.00 0.00 0.00 86 1008.1
20260901180404 17 73 0.0 3.2 0.00 0.00 0.00 85 1008.1
20260901175903 17 73 1.6 4.8 0.00 0.00 0.00 85 1008.1
20260901175404 17 73 1.6 6.4 0.00 0.00 0.00 85 1008.1
20260901174903 18 73 3.2 6.4 0.00 0.00 0.00 84 1008.0
20260901174403 18 73 1.6 4.8 0.00 0.00 0.00 83 1008.0
20260901173903 18 72 1.6 6.4 0.00 0.00 0.00 83 1007.9
20260901173404 18 75 3.2 8.0 0.00 0.00 0.00 82 1007.9
20260901172903 18 73 3.2 8.0 0.00 0.00 0.00 82 1007.9
20260901172402 18 54 3.2 8.0 0.00 0.00 0.00 81 1007.9
20260901171902 18 47 3.2 9.7 0.00 0.00 0.00 80 1007.9
20260901171622 18 54 6.4 9.7 0.00 0.00 0.00 79 1007.9
20260901170902 18 54 3.2 8.0 0.00 0.00 0.00 78 1007.8
20260901170403 19 52 6.4 8.0 0.00 0.00 0.00 78 1007.7
20260901165903 19 54 4.8 6.4 0.00 0.00 0.00 78 1007.7
20260901165401 19 38 3.2 6.4 0.00 0.00 0.00 77 1007.7
20260901164902 19 38 3.2 4.8 0.00 0.00 0.00 76 1007.7
20260901164403 19 38 3.2 4.8 0.00 0.00 0.00 76 1007.6
20260901163903 19 38 3.2 4.8 0.00 0.00 0.00 76 1007.7
20260901163402 19 38 1.6 6.4 0.00 0.00 0.00 76 1007.7
20260901162902 19 38 3.2 6.4 0.00 0.00 0.00 75 1007.6
20260901162628 19 30 4.8 6.4 0.00 0.00 0.00 73 1007.5
20260901161902 20 16 3.2 6.4 0.00 0.00 0.00 72 1007.5
20260901161402 20 25 4.8 6.4 0.00 0.00 0.00 71 1007.5
20260901160903 20 24 3.2 6.4 0.00 0.00 0.00 71 1007.5
20260901160402 20 38 3.2 6.4 0.00 0.00 0.00 70 1007.5
20260901155903 20 38 1.6 4.8 0.00 0.00 0.00 69 1007.5
20260901155402 20 47 3.2 6.4 0.00 0.00 0.00 69 1007.4
20260901154902 20 49 6.4 6.4 0.00 0.00 0.00 68 1007.4
20260901154402 20 56 4.8 6.4 0.00 0.00 0.00 68 1007.4
20260901153902 21 78 4.8 6.4 0.00 0.00 0.00 67 1007.3
20260901153851 21 48 1.6 3.2 0.00 0.00 0.00 68 1007.2
20260901152903 21 48 0.0 4.8 0.00 0.00 0.00 69 1007.2
20260901152402 21 48 1.6 4.8 0.00 0.00 0.00 69 1007.2
20260901151902 21 49 3.2 4.8 0.00 0.00 0.00 69 1007.2
20260901151626 21 49 3.2 4.8 0.00 0.00 0.00 68 1007.3
20260901150904 21 52 1.6 4.8 0.00 0.00 0.00 69 1007.3
20260901150404 21 52 3.2 4.8 0.00 0.00 0.00 68 1007.2
20260901145904 21 63 1.6 8.0 0.00 0.00 0.00 70 1007.4
20260901145621 20 345 3.2 9.7 0.00 0.00 0.00 71 1007.4
20260901144903 20 0 3.2 11.3 0.00 0.00 0.00 71 1007.4
20260901144625 21 268 8.0 11.3 0.00 0.00 0.00 71 1007.5
20260901144127 21 37 3.2 8.0 0.00 0.00 0.00 72 1007.5
20260901143404 20 354 4.8 9.7 0.00 0.00 0.00 73 1007.5
20260901142904 20 13 4.8 9.7 0.00 0.00 0.00 71 1007.4
20260901142403 21 35 4.8 8.0 0.00 0.00 0.00 71 1007.4
20260901141904 21 354 6.4 8.0 0.00 0.00 0.00 71 1007.4
20260901141403 21 329 3.2 8.0 0.00 0.00 0.00 70 1007.4
20260901140903 21 305 4.8 8.0 0.00 0.00 0.00 71 1007.4
20260901140403 21 312 4.8 6.4 0.00 0.00 0.00 72 1007.5
20260901135903 21 289 0.0 4.8 0.00 0.00 0.00 72 1007.4
20260901135402 21 166 3.2 4.8 0.00 0.00 0.00 72 1007.5
20260901134902 21 149 0.0 4.8 0.00 0.00 0.00 73 1007.5
20260901134402 21 193 1.6 6.4 0.00 0.00 0.00 73 1007.6
20260901133902 21 295 4.8 6.4 0.00 0.00 0.00 73 1007.6
20260901133403 20 216 1.6 3.2 0.00 0.00 0.00 75 1007.7
20260901132902 20 214 1.6 6.4 0.00 0.00 0.00 74 1007.7
20260901132402 20 179 3.2 6.4 0.00 0.00 0.00 73 1007.7
20260901132124 20 224 0.0 6.4 0.00 0.00 0.00 75 1007.7
20260901131403 20 251 0.0 6.4 0.00 0.00 0.00 75 1007.7
20260901130903 20 251 1.6 8.0 0.00 0.00 0.00 74 1007.6
20260901130404 20 213 1.6 8.0 0.00 0.00 0.00 75 1007.6
20260901125903 20 282 1.6 6.4 0.00 0.00 0.00 77 1007.7
20260901125403 20 282 1.6 4.8 0.00 0.00 0.00 76 1007.6
20260901124903 20 282 0.0 4.8 0.00 0.00 0.00 76 1007.6
20260901124403 19 282 1.6 4.8 0.00 0.00 0.00 73 1007.6
20260901123903 20 282 3.2 4.8 0.00 0.00 0.00 77 1007.6